Regional Weather Roundup
Issued by NWS Newport/Morehead, NC

Current Version | Previous Version | Graphics & Text | Print | Product List | Glossary On
Versions: 1 2 3 4 5 6 7 8 9 10 11 12 13 14 15 16 17 18 19 20 21 22 23 24 25 26 27 28 29 30 31 32 33 34 35 36 37 38 39 40 41 42 43 44 45 46 47 48 49 50
000 ASUS42 KMHX 050313 RWRMHX WEATHER ROUNDUP FOR EASTERN NORTH CAROLINA NATIONAL WEATHER SERVICE NEWPORT/MOREHEAD CITY NC 1100 PM EDT SAT JUL 04 2015 NOTE: "FAIR" INDICATES FEW OR NO CLOUDS BELOW 12,000 FEET WITH NO SIGNIFICANT WEATHER AND/OR OBSTRUCTIONS TO VISIBILITY NCZ015>017-031-032-045>047-102-103-050400- NORTH COAST CITY SKY/WX TMP DP RH WIND PRES REMARKS EDENTON DRIZZLE 79 73 83 SW5 30.03R ELIZABETH CITY PTCLDY 76 73 91 SW6 30.02R KITTY HAWK PTCLDY 77 72 84 SW6 30.01S MANTEO PTCLDY 78 73 83 SW7 30.03R $$ NCZ045>047-081-094-103-104-050400- CENTRAL COAST CITY SKY/WX TMP DP RH WIND PRES REMARKS FRISCO CLOUDY 78 75 90 SW14 30.05R SWANQUARTER N/A 82 N/A N/A SW12 30.00S $$ NCZ095-097-098-100-101-050400- SOUTHERN COAST CITY SKY/WX TMP DP RH WIND PRES REMARKS BEAUFORT CLOUDY 80 77 90 SW14 30.06R CEDAR ISLAND N/A 81 N/A N/A S3G18 30.09S JACKSONVILLE MOCLDY 79 71 76 SW5 30.05R PINEY ISLAND CLOUDY N/A N/A N/A SW14 30.05R WILMINGTON PTCLDY 80 73 79 SW10 30.06S $$ NCZ011>013-027>030-043-044-078>080-089-090>093-098-050400- COASTAL PLAIN CITY SKY/WX TMP DP RH WIND PRES REMARKS AHOSKIE CLOUDY N/A N/A N/A CALM 30.03R CLINTON CLEAR 78 71 80 S3 30.05S ELIZABETHTOWN CLEAR 78 72 79 CALM 30.05R GOLDSBORO PTCLDY 80 70 71 SW7 30.02R GREENVILLE MOCLDY 81 70 69 SW5 30.05R HAVELOCK MOCLDY 81 73 76 SW13 30.06R KENANSVILLE CLEAR 77 69 75 CALM 30.05F KINSTON MOCLDY 79 69 70 SW3 30.05R NEW BERN PTCLDY 80 72 76 SW6 30.06R RICHLANDS MOCLDY 79 68 69 S9 30.05S ROCKY MOUNT PTCLDY 75 71 87 S6 30.03R WASHINGTON CLOUDY 80 69 69 W3 30.04R WHITEVILLE PTCLDY 80 74 81 S7 30.06R $$ AMZ130-135-150-152-154-156-158-170-250-252-270-ANZ085-086-088-633-658-670-050400- MARINE OBSERVATIONS STATION/POSITION TIME TEMP WIND PRES WAVE SWELL AIR SEA DIR/SP/G HT/PER HT/PER (UTC) (F) (DEG/KT/KT) (MB) (FT/S) (FT/S) CHESAPEAKE LIGHT 0300 76 300/ 17/ 20 1017.0 64 E VA BEACH 0250 78 76 220/ 12/ 16 1015.0 6/ 7 5/ 7 DUCK 0200 80 72 220/ 9/ 11 N/A 2 E DUCK 0211 77 N/A 2/ 7 OREGON INLET 0200 80 82 240/ 6/ 9 1016.4 13E OREGON INLT 0300 72 N/A 5/ 6 HATTERAS CG 0200 79 80 220/ 10/ 15 1016.9 DIAMOND BUOY 0250 81 81 230/ 23/ 29 1016.9 6/ 6 2/ 9 CAPE LOOKOUT 0300 80 230/ 10/ 14 1017.9 BEAUFORT LAB 0200 81 80 220/ 8/ 15 1017.1 30 SE NEW RVR IN NOT AVBL 27 SE WRIGHTSVLE 0200 80 230/ 17/ 23 N/A 5 SE WRIGHTSVLE 0208 80 78 230/ 16/ 19 1017.8 225 S CAPE HAT 0250 82 80 230/ 6/ 8 1022.0 5/ 8 5/ 8 41 SE CHARLESTON 0250 81 82 220/ 12/ 14 1018.8 3/ 9 2/ 9 $$

USA.gov is the U.S. government's official web portal to all federal, state and local government web resources and services.